Location: Barletta
(41.3170°N, 16.2830°E)
Time: 03:05:27
(UTC+02:00)

ISS - Pass Details

Date: 19 May 2021
Orbit: 417 x 422 km, 51.6° (Epoch: 14 June)

Event Time Altitude Azimuth Distance (km) Brightness Sun altitude
Rises 23:43:58 0° 305° (NW) 2,368 0.8 -26.8°
Reaches altitude 10° 23:46:44 10° 330° (NNW) 1,504 0.0 -26.9°
Maximum altitude 23:48:48 15° 7° (N) 1,233 -0.7 -27.0°
Enters shadow 23:50:24 12° 38° (NE) 1,405 -0.7 -27.1°
